Location: Lynch Observatory
(39.9540°N, 75.1861°W)
Time: 13:03:10
(UTC-04:00)

PCSat - Visible Passes

Search period start: 16 April 2024 00:00
Search period end: 26 April 2024 00:00
Orbit: 783 x 792 km, 67.0° (Epoch: 15 April)

Date Brightness Start Highest point End Pass type
(mag) Time Alt. Az. Time Alt. Az. Time Alt. Az.
16 Apr 12.3 05:12:02 10° N 05:16:03 21° NE 05:20:03 10° E visible
16 Apr 10.1 21:34:41 10° SW 21:40:00 61° WNW 21:45:23 10° NNE visible
16 Apr 12.7 23:22:51 10° NW 23:24:30 11° NW 23:26:08 10° NNW visible
17 Apr 12.5 04:40:57 10° N 04:44:11 16° NE 04:47:25 10° E visible
17 Apr 9.6 21:02:59 10° SSW 21:08:23 84° WNW 21:13:49 10° NNE visible
17 Apr 12.5 22:49:34 10° WNW 22:52:33 15° NW 22:55:34 10° N visible
18 Apr 12.8 04:10:11 10° NNE 04:12:16 12° NE 04:14:20 10° ENE visible
18 Apr 9.5 20:31:27 10° SSW 20:36:48 70° ESE 20:42:12 10° NNE visible
18 Apr 12.2 22:16:51 10° W 22:20:41 19° NW 22:24:31 10° N visible
19 Apr 10.8 05:19:46 10° NNW 05:25:01 47° NE 05:30:13 10° SE visible
19 Apr 11.8 21:44:26 10° WSW 21:48:51 25° NW 21:53:19 10° N visible
20 Apr 11.3 04:48:21 10° NNW 04:53:18 35° NE 04:58:13 10° ESE visible
20 Apr 11.4 21:12:13 10° WSW 21:17:05 33° NW 21:21:59 10° NNE visible
21 Apr 11.8 04:17:00 10° N 04:21:33 26° NE 04:26:03 10° ESE visible
21 Apr 10.8 20:40:12 10° SW 20:45:22 45° NW 20:50:34 10° NNE visible
22 Apr 12.2 03:45:46 10° N 03:49:43 20° NE 03:53:40 10° E visible
22 Apr 9.5 05:28:10 10° NW 05:33:33 66° WSW 05:38:53 10° SSE visible
22 Apr 10.2 20:08:21 10° SW 20:13:41 63° WNW 20:19:04 10° NNE visible
22 Apr 12.8 21:56:21 10° WNW 21:58:09 12° NW 21:59:58 10° NNW visible
23 Apr 12.5 03:14:41 10° N 03:17:51 15° NE 03:20:59 10° ENE visible
23 Apr 9.6 04:56:31 10° NNW 05:01:58 88° ENE 05:07:23 10° SSE visible
23 Apr 12.6 21:23:08 10° WNW 21:26:13 15° NW 21:29:18 10° N visible
24 Apr 12.7 02:43:59 10° NNE 02:45:55 12° NE 02:47:51 10° ENE visible
24 Apr 10.0 04:24:57 10° NNW 04:30:21 64° ENE 04:35:42 10° SE visible
24 Apr 12.4 20:50:27 10° W 20:54:20 20° NW 20:58:14 10° N visible
25 Apr 10.6 03:53:28 10° NNW 03:58:41 46° NE 04:03:52 10° SE visible
25 Apr 10.6 05:37:27 10° NW 05:41:42 24° WSW 05:45:56 10° SSW visible
25 Apr 12.1 20:18:03 10° WSW 20:22:30 26° NW 20:27:00 10° N visible
